Location: Unspecified
(0.0000°N, 0.0000°E)
Time: 13:10:30
(UTC+00:00)

X-37B - Pass Details

Date: 20 June 2021
Orbit: 386 x 389 km, 45.0° (Epoch: 10 June)

Event Time Altitude Azimuth Distance (km) Brightness Sun altitude
Rises 18:25:55 0° 208° (SSW) 2,266 4.5 -5.5°
Reaches altitude 10° 18:28:08 10° 197° (SSW) 1,410 3.4 -6.1°
Maximum altitude 18:31:00 31° 133° (SE) 705 1.4 -6.7°
Drops below altitude 10° 18:33:51 10° 68° (ENE) 1,403 3.0 -7.4°
Sets 18:36:02 0° 57° (ENE) 2,253 4.1 -7.9°
